User: anonymous   Login
Location: Unspecified
(90.0000°S, 0.0000°E)
Time: 15:34:26
(UTC+00:00)
Language:

SPROUT - Orbit

View from above orbital plane
View from above orbital plane
View from above satellite
View from above satellite

Ground track
Ground track

The orbit data is extracted from the following two-line orbital elements,

1 39770U 14029E   19233.20568759  .00000422  00000-0  52814-4 0  9994
2 39770  97.8878 336.0975 0007859 233.6024 126.4474 14.87391466284277
Epoch (UTC): 21 August 2019 04:56:11
Eccentricity: 0.0007859
inclination: 97.8878°
perigee height: 600 km
apogee height: 611 km
right ascension of ascending node: 336.0975°
argument of perigee: 233.6024°
revolutions per day: 14.87391466
mean anomaly at epoch: 126.4474°
orbit number at epoch: 28427

The dashed part of the orbit path shows where the satellite is in the earth's shadow,  

DLR